Home > Weather > Toowoomba > Past weeks

Flag for Australia Weather for the Past 2 Weeks in Toowoomba, Queensland, Australia

Now
56 °F

Cool.


Feels Like: 54 °F
Forecast: 53 / 74 °F
Wind: 7 mph from Northeast

Location: Oakey Aerodrome

Current Time: May 6, 2016 at 4:48:24 AM

Latest Report: May 6, 2016 at 4:00 AM


Visibility: N/A

Pressure: 30.08 "Hg (28.01 "Hg at 597m altitude)

Humidity: 98%

Dew Point: 55 °F

Location of ToowoombaLocation

Historic Weather in Toowoomba — Graph

°F

Toowoomba Temperature Yesterday

Maximum temperature yesterday: 80 °F (at 3:00 PM)
Minimum temperature yesterday: 45 °F (at 4:00 AM)
Average temperature yesterday: 62 °F

High & Low Weather Summary for the Past Weeks

 TemperatureHumidityPressure
High85 °F (May 1, 3:00 PM)99% (Apr 22, 7:00 AM)30.27 "Hg (Apr 22, 7:00 AM)
Low45 °F (May 5, 4:00 AM)26% (Apr 23, 3:00 PM)29.89 "Hg (May 3, 3:00 PM)
Average66 °F70%30.10 "Hg
* Reported Apr 21 3:00 AM — May 6 3:00 AM, Toowoomba, Weather by CustomWeather, © 2016

Note: Actual official high and low records may vary slightly from our data, if they occured in-between our weather recording intervals... More about our weather records

Advertising

Toowoomba Weather History for the Previous 24 Hours

Scroll right to see more
 ConditionsComfort  
Time TempWeatherWind HumidityBarometerVisibility
3:00 AM
Fri, May 6
56 °FCool.6 mph92%30.08 "HgN/A
1:00 AM58 °FCool.10 mph91%30.09 "HgN/A
12:00 AM58 °FCool.7 mph86%30.10 "HgN/A
10:00 PM
Thu, May 5
61 °FCool.9 mph78%30.11 "HgN/A
9:00 PM62 °FCool.8 mph68%30.11 "HgN/A
7:00 PM65 °FMild.8 mph60%30.09 "HgN/A
6:00 PM70 °FMild.10 mph51%30.06 "HgN/A
4:00 PM79 °FPleasantly warm.9 mph33%30.03 "HgN/A
3:00 PM80 °FPleasantly warm.7 mph27%30.03 "HgN/A
1:00 PM79 °FPleasantly warm.7 mph35%30.06 "HgN/A
12:00 PM77 °FMild.7 mph33%30.09 "HgN/A
10:00 AM72 °FMild.8 mph53%30.15 "HgN/A
9:00 AM67 °FMild.7 mph67%30.16 "HgN/A
7:00 AM47 °FCool.No wind94%30.13 "HgN/A
6:00 AM46 °FCool.No wind94%30.11 "HgN/A
4:00 AM45 °FCool.6 mph91%30.08 "HgN/A
Weather by CustomWeather, © 2016

See weather overviewHow to use our weather pages